ETD238 OMAA-VOBL

Flight info

Callsign ETD238
Flight time 3h 11m
Altitude 39000
Route KANIP N318 REXOD N563 GUNIM GUNIM7F
Aircraft B789/H-SDE1E2E3FGHIJ2J3J4J5M1RWXY/LB1D1

Departure

Time 2026-04-28 04:09
Airport Zayed International Airport (OMAA)

Arrival

Time 2026-04-28 07:20
Airport Kempegowda International Airport Bengaluru (VOBL)
Time Latitude Longitude Altitude Speed Heading
2026-04-28 03:45 24.45224 54.64547 95 ft 0 kts 191°
2026-04-28 04:00 24.45231 54.64549 94 ft 2 kts 192°
2026-04-28 04:00 24.45247 54.64555 94 ft 2 kts 206°
2026-04-28 04:00 24.45261 54.64565 92 ft 2 kts 221°
2026-04-28 04:00 24.45272 54.64578 94 ft 2 kts 238°
2026-04-28 04:01 24.45279 54.64595 93 ft 2 kts 254°
2026-04-28 04:01 24.45282 54.64613 93 ft 2 kts 265°
2026-04-28 04:01 24.45282 54.64631 93 ft 2 kts 274°
2026-04-28 04:01 24.45280 54.64645 93 ft 1 kts 279°
2026-04-28 04:02 24.45280 54.64649 93 ft 0 kts 280°
2026-04-28 04:03 24.45281 54.64644 94 ft 2 kts 281°
2026-04-28 04:03 24.45286 54.64611 97 ft 7 kts 281°
2026-04-28 04:04 24.45297 54.64546 95 ft 11 kts 281°
2026-04-28 04:04 24.45328 54.64461 95 ft 13 kts 307°
2026-04-28 04:04 24.45383 54.64452 98 ft 7 kts 35°
2026-04-28 04:04 24.45436 54.64503 97 ft 13 kts 37°
2026-04-28 04:05 24.45526 54.64577 95 ft 19 kts 37°
2026-04-28 04:05 24.45621 54.64610 95 ft 8 kts 329°
2026-04-28 04:05 24.45662 54.64553 95 ft 13 kts 306°
2026-04-28 04:05 24.45729 54.64456 95 ft 19 kts 308°
2026-04-28 04:06 24.45826 54.64319 96 ft 26 kts 307°
2026-04-28 04:06 24.45948 54.64144 96 ft 31 kts 307°
2026-04-28 04:06 24.46085 54.63951 96 ft 33 kts 308°
2026-04-28 04:06 24.46206 54.63787 94 ft 20 kts 322°
2026-04-28 04:07 24.46290 54.63803 94 ft 12 kts 41°
2026-04-28 04:07 24.46368 54.63879 92 ft 18 kts 41°
2026-04-28 04:07 24.46417 54.63961 85 ft 6 kts 108°
2026-04-28 04:07 24.46400 54.63987 83 ft 1 kts 128°
2026-04-28 04:08 24.46392 54.63998 84 ft 3 kts 128°
2026-04-28 04:08 24.46363 54.64038 88 ft 10 kts 128°
2026-04-28 04:08 24.46272 54.64166 87 ft 43 kts 128°
2026-04-28 04:08 24.45964 54.64597 91 ft 100 kts 128°
2026-04-28 04:09 24.45426 54.65353 92 ft 150 kts 128°
2026-04-28 04:09 24.44707 54.66334 417 ft 163 kts 134°
2026-04-28 04:09 24.44025 54.67232 1142 ft 150 kts 129°
2026-04-28 04:09 24.43345 54.68171 1437 ft 163 kts 127°
2026-04-28 04:10 24.42585 54.69216 1715 ft 186 kts 128°
2026-04-28 04:10 24.41905 54.70508 2163 ft 204 kts 111°
2026-04-28 04:10 24.41406 54.72028 2701 ft 218 kts 108°
2026-04-28 04:10 24.40846 54.73627 3214 ft 231 kts 110°
2026-04-28 04:11 24.40205 54.75305 3697 ft 245 kts 111°
2026-04-28 04:11 24.39524 54.77083 4169 ft 259 kts 111°
2026-04-28 04:11 24.38826 54.78939 4625 ft 277 kts 111°
2026-04-28 04:11 24.38078 54.80936 5317 ft 286 kts 111°
2026-04-28 04:12 24.37313 54.82967 6188 ft 290 kts 111°
2026-04-28 04:12 24.36538 54.85018 7015 ft 293 kts 111°
2026-04-28 04:12 24.35752 54.87103 7776 ft 298 kts 111°
2026-04-28 04:12 24.34957 54.89213 8562 ft 302 kts 111°
2026-04-28 04:13 24.34147 54.91357 9336 ft 306 kts 112°
2026-04-28 04:13 24.33330 54.93521 10071 ft 310 kts 112°
2026-04-28 04:13 24.32482 54.95762 10502 ft 326 kts 112°
2026-04-28 04:13 24.31591 54.98123 10917 ft 342 kts 112°
2026-04-28 04:14 24.30657 55.00592 11322 ft 358 kts 112°
2026-04-28 04:14 24.29685 55.03158 11780 ft 370 kts 112°
2026-04-28 04:14 24.28690 55.05787 12445 ft 375 kts 113°
2026-04-28 04:14 24.27683 55.08446 13177 ft 380 kts 113°
2026-04-28 04:15 24.26666 55.11128 13874 ft 384 kts 113°
2026-04-28 04:15 24.25647 55.13812 14515 ft 388 kts 114°
2026-04-28 04:15 24.23558 55.19313 15835 ft 395 kts 114°
2026-04-28 04:16 24.22498 55.22102 16482 ft 398 kts 114°
2026-04-28 04:16 24.21429 55.24913 17162 ft 401 kts 114°
2026-04-28 04:16 24.20351 55.27746 17806 ft 404 kts 115°
2026-04-28 04:16 24.19263 55.30601 18411 ft 407 kts 115°
2026-04-28 04:17 24.18168 55.33475 18936 ft 411 kts 115°
2026-04-28 04:17 24.17057 55.36386 19458 ft 415 kts 115°
2026-04-28 04:17 24.15932 55.39309 19980 ft 419 kts 115°
2026-04-28 04:17 24.14792 55.42265 20494 ft 423 kts 115°
2026-04-28 04:18 24.13642 55.45254 20990 ft 428 kts 115°
2026-04-28 04:18 24.12484 55.48267 21477 ft 432 kts 115°
2026-04-28 04:18 24.11313 55.51310 21943 ft 436 kts 115°
2026-04-28 04:18 24.10129 55.54381 22424 ft 440 kts 114°
2026-04-28 04:19 24.08932 55.57477 22890 ft 444 kts 115°
2026-04-28 04:19 24.07713 55.60607 23346 ft 448 kts 114°
2026-04-28 04:19 24.06485 55.63763 23740 ft 452 kts 115°
2026-04-28 04:19 24.05248 55.66937 24135 ft 456 kts 115°
2026-04-28 04:20 24.04000 55.70139 24524 ft 459 kts 115°
2026-04-28 04:20 24.02744 55.73359 24907 ft 462 kts 115°
2026-04-28 04:20 24.01478 55.76604 25291 ft 465 kts 115°
2026-04-28 04:20 24.00203 55.79870 25696 ft 468 kts 115°
2026-04-28 04:21 23.98926 55.83159 26100 ft 472 kts 115°
2026-04-28 04:21 23.97644 55.86476 26449 ft 475 kts 115°
2026-04-28 04:21 23.96353 55.89816 26812 ft 478 kts 115°
2026-04-28 04:21 23.95052 55.93176 27179 ft 481 kts 115°
2026-04-28 04:22 23.93742 55.96558 27543 ft 484 kts 115°
2026-04-28 04:22 23.92427 55.99953 27891 ft 488 kts 115°
2026-04-28 04:22 23.91107 56.03378 28226 ft 491 kts 115°
2026-04-28 04:22 23.89782 56.06829 28592 ft 493 kts 115°
2026-04-28 04:23 23.88450 56.10295 28941 ft 496 kts 115°
2026-04-28 04:23 23.87115 56.13788 29287 ft 499 kts 115°
2026-04-28 04:23 23.85775 56.17300 29629 ft 502 kts 115°
2026-04-28 04:23 23.84416 56.20835 29954 ft 504 kts 117°
2026-04-28 04:24 23.82834 56.24257 30149 ft 507 kts 122°
2026-04-28 04:24 23.81068 56.27609 30405 ft 510 kts 123°
2026-04-28 04:24 23.79321 56.30924 30735 ft 511 kts 121°
2026-04-28 04:24 23.77708 56.34395 31011 ft 515 kts 118°
2026-04-28 04:25 23.76122 56.37961 31272 ft 517 kts 118°
2026-04-28 04:25 23.74468 56.41401 31526 ft 519 kts 121°
2026-04-28 04:25 23.72729 56.44859 31779 ft 522 kts 121°
2026-04-28 04:25 23.71025 56.48375 32035 ft 525 kts 119°
2026-04-28 04:26 23.69363 56.51936 32298 ft 528 kts 118°
2026-04-28 04:26 23.67673 56.55500 32524 ft 531 kts 119°
2026-04-28 04:26 23.65934 56.59059 32784 ft 533 kts 120°
2026-04-28 04:26 23.64183 56.62651 33027 ft 537 kts 119°
2026-04-28 04:27 23.62457 56.66260 33273 ft 540 kts 118°
2026-04-28 04:27 23.60714 56.69912 33522 ft 542 kts 118°
2026-04-28 04:27 23.58950 56.73558 33780 ft 545 kts 119°
2026-04-28 04:27 23.57171 56.77216 33972 ft 548 kts 119°
2026-04-28 04:28 23.55393 56.80894 34219 ft 549 kts 118°
2026-04-28 04:28 23.53620 56.84580 34528 ft 549 kts 118°
2026-04-28 04:28 23.51844 56.88254 34804 ft 548 kts 118°
2026-04-28 04:28 23.50057 56.91931 35158 ft 548 kts 118°
2026-04-28 04:29 23.48279 56.95593 35498 ft 547 kts 118°
2026-04-28 04:29 23.47107 56.98014 35736 ft 546 kts 118°
2026-04-28 04:29 23.45334 57.01675 36072 ft 546 kts 118°
2026-04-28 04:29 23.43561 57.05325 36415 ft 545 kts 118°
2026-04-28 04:30 23.41790 57.08963 36721 ft 544 kts 118°
2026-04-28 04:30 23.40019 57.12604 37045 ft 544 kts 118°
2026-04-28 04:30 23.38251 57.16239 37374 ft 543 kts 118°
2026-04-28 04:30 23.36482 57.19871 37674 ft 543 kts 118°
2026-04-28 04:31 23.34712 57.23501 38018 ft 542 kts 118°
2026-04-28 04:31 23.32945 57.27122 38351 ft 542 kts 118°
2026-04-28 04:31 23.31179 57.30740 38664 ft 541 kts 118°
2026-04-28 04:31 23.29413 57.34356 38853 ft 542 kts 118°
2026-04-28 04:32 23.27642 57.37977 38919 ft 542 kts 118°
2026-04-28 04:32 23.24060 57.45293 38934 ft 553 kts 118°
2026-04-28 04:33 23.20405 57.52752 38947 ft 565 kts 118°
2026-04-28 04:33 23.16681 57.60336 38940 ft 570 kts 118°
2026-04-28 04:34 23.12941 57.67944 38935 ft 571 kts 118°
2026-04-28 04:34 23.09216 57.75507 38921 ft 571 kts 118°
2026-04-28 04:35 23.05475 57.83094 38913 ft 570 kts 118°
2026-04-28 04:35 23.01726 57.90682 38900 ft 570 kts 118°
2026-04-28 04:36 22.97978 57.98259 38897 ft 569 kts 118°
2026-04-28 04:36 22.94225 58.05834 38889 ft 570 kts 118°
2026-04-28 04:37 22.90465 58.13411 38886 ft 570 kts 118°
2026-04-28 04:37 22.86711 58.20965 38880 ft 569 kts 118°
2026-04-28 04:38 22.82953 58.28516 38874 ft 568 kts 118°
2026-04-28 04:38 22.79195 58.36055 38873 ft 568 kts 118°
2026-04-28 04:39 22.75465 58.43527 38867 ft 568 kts 118°
2026-04-28 04:39 22.71705 58.51048 38866 ft 567 kts 118°
2026-04-28 04:40 22.67949 58.58550 38861 ft 566 kts 118°
2026-04-28 04:40 22.64362 58.66139 38859 ft 566 kts 116°
2026-04-28 04:41 22.60764 58.73719 38856 ft 565 kts 116°
2026-04-28 04:41 22.57236 58.81316 38859 ft 565 kts 116°
2026-04-28 04:42 22.53666 58.88883 38858 ft 564 kts 116°
2026-04-28 04:42 22.50135 58.96413 38861 ft 564 kts 116°
2026-04-28 04:43 22.46572 59.03976 38782 ft 563 kts 117°
2026-04-28 04:43 22.43029 59.11490 38842 ft 560 kts 118°
2026-04-28 04:44 22.39490 59.18988 38832 ft 560 kts 118°
2026-04-28 04:44 22.35946 59.26479 38830 ft 560 kts 118°
2026-04-28 04:45 22.32393 59.33984 38823 ft 560 kts 118°
2026-04-28 04:45 22.28840 59.41472 38821 ft 560 kts 118°
2026-04-28 04:46 22.25311 59.48903 38811 ft 560 kts 118°
2026-04-28 04:46 22.21751 59.56386 38809 ft 560 kts 118°
2026-04-28 04:47 22.18193 59.63856 38800 ft 559 kts 117°
2026-04-28 04:47 22.14751 59.71069 38801 ft 559 kts 118°
2026-04-28 04:48 22.11211 59.78480 38803 ft 558 kts 117°
2026-04-28 04:48 22.07673 59.85876 38802 ft 552 kts 118°
2026-04-28 04:49 22.04133 59.93263 38797 ft 555 kts 117°
2026-04-28 04:49 22.00592 60.00644 38802 ft 554 kts 117°
2026-04-28 04:50 21.97045 60.08024 38800 ft 554 kts 117°
2026-04-28 04:50 21.93496 60.15401 38800 ft 554 kts 117°
2026-04-28 04:51 21.89944 60.22771 38801 ft 554 kts 117°
2026-04-28 04:51 21.86415 60.30084 38799 ft 554 kts 117°
2026-04-28 04:52 21.82837 60.37488 38798 ft 554 kts 117°
2026-04-28 04:52 21.79304 60.44790 38801 ft 553 kts 117°
2026-04-28 04:53 21.75746 60.52132 38804 ft 553 kts 117°
2026-04-28 04:53 21.72187 60.59465 38802 ft 553 kts 117°
2026-04-28 04:54 21.68622 60.66801 38802 ft 553 kts 117°
2026-04-28 04:54 21.65055 60.74130 38801 ft 553 kts 117°
2026-04-28 04:55 21.61491 60.81443 38800 ft 553 kts 117°
2026-04-28 04:55 21.57920 60.88761 38803 ft 552 kts 117°
2026-04-28 04:56 21.54349 60.96068 38810 ft 552 kts 117°
2026-04-28 04:56 21.50779 61.03363 38805 ft 551 kts 117°
2026-04-28 04:57 21.47210 61.10647 38810 ft 551 kts 117°
2026-04-28 04:57 21.43640 61.17923 38813 ft 551 kts 117°
2026-04-28 04:58 21.40063 61.25202 38812 ft 551 kts 117°
2026-04-28 04:58 21.36510 61.32423 38819 ft 551 kts 117°
2026-04-28 04:59 21.32926 61.39696 38815 ft 551 kts 117°
2026-04-28 04:59 21.29347 61.46949 38813 ft 550 kts 117°
2026-04-28 05:00 21.25766 61.54198 38815 ft 550 kts 118°
2026-04-28 05:00 21.22178 61.61451 38823 ft 550 kts 118°
2026-04-28 05:01 21.18610 61.68699 38823 ft 550 kts 117°
2026-04-28 05:01 21.15108 61.75966 38822 ft 549 kts 117°
2026-04-28 05:02 21.11556 61.83211 38818 ft 549 kts 117°
2026-04-28 05:02 21.08031 61.90465 38824 ft 549 kts 117°
2026-04-28 05:03 21.04486 61.97707 38815 ft 549 kts 117°
2026-04-28 05:03 21.00940 62.04962 38811 ft 550 kts 117°
2026-04-28 05:04 20.97393 62.12201 38814 ft 550 kts 117°
2026-04-28 05:04 20.93842 62.19439 38823 ft 549 kts 117°
2026-04-28 05:05 20.90288 62.26678 38823 ft 549 kts 117°
2026-04-28 05:05 20.86753 62.33865 38824 ft 549 kts 117°
2026-04-28 05:06 20.83195 62.41092 38828 ft 549 kts 117°
2026-04-28 05:06 20.79637 62.48304 38828 ft 549 kts 117°
2026-04-28 05:07 20.76072 62.55527 38832 ft 549 kts 117°
2026-04-28 05:07 20.72508 62.62735 38833 ft 548 kts 117°
2026-04-28 05:08 20.68944 62.69935 38833 ft 548 kts 117°
2026-04-28 05:08 20.65380 62.77125 38836 ft 548 kts 117°
2026-04-28 05:09 20.61811 62.84315 38835 ft 546 kts 117°
2026-04-28 05:09 20.58289 62.91402 38821 ft 542 kts 117°
2026-04-28 05:10 20.54763 62.98502 38819 ft 541 kts 117°
2026-04-28 05:10 20.51231 63.05581 38817 ft 540 kts 117°
2026-04-28 05:11 20.47699 63.12668 38820 ft 540 kts 117°
2026-04-28 05:11 20.44166 63.19736 38820 ft 540 kts 117°
2026-04-28 05:12 20.40632 63.26804 38825 ft 540 kts 117°
2026-04-28 05:12 20.37115 63.33825 38823 ft 538 kts 117°
2026-04-28 05:13 20.33588 63.40860 38824 ft 538 kts 117°
2026-04-28 05:13 20.30063 63.47881 38829 ft 536 kts 118°
2026-04-28 05:14 20.26539 63.54893 38832 ft 537 kts 118°
2026-04-28 05:14 20.23017 63.61891 38830 ft 536 kts 118°
2026-04-28 05:15 20.19492 63.68885 38828 ft 535 kts 118°
2026-04-28 05:15 20.15969 63.75869 38831 ft 536 kts 118°
2026-04-28 05:16 20.13040 63.81667 38831 ft 536 kts 118°
2026-04-28 05:16 20.09513 63.88641 38829 ft 535 kts 118°
2026-04-28 05:17 20.03644 64.00228 38834 ft 534 kts 118°
2026-04-28 05:17 20.00691 64.06049 38834 ft 534 kts 118°
2026-04-28 05:18 19.97158 64.13006 38831 ft 534 kts 118°
2026-04-28 05:18 19.93648 64.19910 38834 ft 535 kts 118°
2026-04-28 05:19 19.90091 64.26896 38837 ft 534 kts 118°
2026-04-28 05:19 19.86576 64.33792 38837 ft 533 kts 118°
2026-04-28 05:20 19.83040 64.40722 38836 ft 534 kts 118°
2026-04-28 05:20 19.79492 64.47666 38838 ft 533 kts 118°
2026-04-28 05:21 19.75973 64.54544 38837 ft 533 kts 118°
2026-04-28 05:21 19.72426 64.61470 38839 ft 534 kts 118°
2026-04-28 05:22 19.68878 64.68391 38836 ft 534 kts 118°
2026-04-28 05:22 19.65330 64.75302 38840 ft 533 kts 118°
2026-04-28 05:23 19.61781 64.82206 38841 ft 533 kts 118°
2026-04-28 05:23 19.58233 64.89101 38840 ft 533 kts 118°
2026-04-28 05:24 19.54673 64.96012 38842 ft 533 kts 119°
2026-04-28 05:24 19.51146 65.02870 38843 ft 532 kts 118°
2026-04-28 05:25 19.47684 65.09863 38841 ft 532 kts 118°
2026-04-28 05:25 19.44202 65.16744 38840 ft 532 kts 118°
2026-04-28 05:26 19.40733 65.23662 38842 ft 532 kts 118°
2026-04-28 05:26 19.37242 65.30590 38841 ft 532 kts 118°
2026-04-28 05:27 19.33777 65.37460 38842 ft 532 kts 118°
2026-04-28 05:27 19.30289 65.44376 38842 ft 532 kts 118°
2026-04-28 05:28 19.26801 65.51272 38841 ft 531 kts 118°
2026-04-28 05:28 19.23314 65.58169 38840 ft 531 kts 118°
2026-04-28 05:29 19.19818 65.65066 38841 ft 532 kts 118°
2026-04-28 05:29 19.16323 65.71960 38839 ft 531 kts 118°
2026-04-28 05:30 19.12829 65.78840 38839 ft 531 kts 118°
2026-04-28 05:30 19.09329 65.85727 38838 ft 531 kts 118°
2026-04-28 05:31 19.05822 65.92618 38839 ft 531 kts 118°
2026-04-28 05:31 19.02319 65.99494 38838 ft 531 kts 118°
2026-04-28 05:32 18.98835 66.06324 38836 ft 532 kts 118°
2026-04-28 05:32 18.95322 66.13204 38834 ft 532 kts 118°
2026-04-28 05:33 18.91799 66.20096 38840 ft 533 kts 118°
2026-04-28 05:33 18.88273 66.26984 38839 ft 533 kts 118°
2026-04-28 05:34 18.84744 66.33872 38836 ft 533 kts 118°
2026-04-28 05:34 18.81234 66.40714 38835 ft 532 kts 118°
2026-04-28 05:35 18.77706 66.47583 38838 ft 532 kts 118°
2026-04-28 05:35 18.74172 66.54457 38835 ft 533 kts 118°
2026-04-28 05:36 18.70633 66.61333 38835 ft 534 kts 119°
2026-04-28 05:36 18.67082 66.68224 38836 ft 535 kts 119°
2026-04-28 05:37 18.63523 66.75122 38835 ft 536 kts 119°
2026-04-28 05:37 18.59952 66.82037 38838 ft 536 kts 119°
2026-04-28 05:38 18.56380 66.88945 38838 ft 536 kts 119°
2026-04-28 05:38 18.52834 66.95797 38837 ft 536 kts 119°
2026-04-28 05:39 18.49253 67.02707 38838 ft 537 kts 119°
2026-04-28 05:39 18.45670 67.09614 38835 ft 537 kts 119°
2026-04-28 05:40 18.42084 67.16518 38843 ft 537 kts 119°
2026-04-28 05:40 18.38495 67.23420 38842 ft 537 kts 119°
2026-04-28 05:41 18.34907 67.30314 38841 ft 537 kts 119°
2026-04-28 05:41 18.31304 67.37229 38840 ft 538 kts 119°
2026-04-28 05:42 18.27703 67.44131 38842 ft 538 kts 119°
2026-04-28 05:42 18.24102 67.51026 38842 ft 538 kts 119°
2026-04-28 05:43 18.20494 67.57927 38837 ft 538 kts 119°
2026-04-28 05:43 18.16887 67.64819 38844 ft 538 kts 119°
2026-04-28 05:44 18.13270 67.71723 38844 ft 539 kts 120°
2026-04-28 05:44 18.09671 67.78583 38846 ft 540 kts 120°
2026-04-28 05:45 18.06058 67.85498 38843 ft 540 kts 119°
2026-04-28 05:45 18.02581 67.92501 38849 ft 540 kts 118°
2026-04-28 05:46 17.99024 67.99456 38844 ft 540 kts 119°
2026-04-28 05:46 17.95504 68.06433 38846 ft 540 kts 118°
2026-04-28 05:47 17.91957 68.13411 38846 ft 541 kts 119°
2026-04-28 05:47 17.88412 68.20388 38846 ft 542 kts 119°
2026-04-28 05:48 17.84859 68.27381 38843 ft 543 kts 119°
2026-04-28 05:48 17.81294 68.34375 38844 ft 543 kts 119°
2026-04-28 05:49 17.77726 68.41381 38842 ft 545 kts 120°
2026-04-28 05:49 17.74147 68.48390 38846 ft 546 kts 120°
2026-04-28 05:50 17.70579 68.55378 38846 ft 547 kts 120°
2026-04-28 05:50 17.66976 68.62421 38846 ft 548 kts 120°
2026-04-28 05:51 17.63369 68.69469 38847 ft 549 kts 120°
2026-04-28 05:51 17.59747 68.76535 38850 ft 550 kts 120°
2026-04-28 05:52 17.56128 68.83589 38852 ft 552 kts 120°
2026-04-28 05:52 17.52501 68.90651 38854 ft 552 kts 120°
2026-04-28 05:53 17.48855 68.97741 38852 ft 553 kts 120°
2026-04-28 05:53 17.45204 69.04834 38851 ft 553 kts 120°
2026-04-28 05:54 17.41530 69.11963 38861 ft 560 kts 120°
2026-04-28 05:54 17.37819 69.19160 38861 ft 561 kts 120°
2026-04-28 05:55 17.34119 69.26321 38854 ft 558 kts 121°
2026-04-28 05:55 17.30428 69.33461 38850 ft 558 kts 121°
2026-04-28 05:56 17.26731 69.40604 38851 ft 558 kts 121°
2026-04-28 05:56 17.23035 69.47737 38848 ft 557 kts 121°
2026-04-28 05:57 17.19334 69.54872 38848 ft 558 kts 121°
2026-04-28 05:57 17.15652 69.62018 38850 ft 558 kts 121°
2026-04-28 05:58 17.11973 69.69169 38852 ft 558 kts 121°
2026-04-28 05:58 17.08305 69.76266 38850 ft 558 kts 121°
2026-04-28 05:59 17.04617 69.83419 38855 ft 560 kts 121°
2026-04-28 05:59 17.00916 69.90570 38852 ft 559 kts 121°
2026-04-28 06:00 16.97216 69.97722 38855 ft 560 kts 121°
2026-04-28 06:00 16.93511 70.04872 38854 ft 559 kts 121°
2026-04-28 06:01 16.89809 70.12009 38858 ft 559 kts 121°
2026-04-28 06:01 16.86105 70.19143 38858 ft 559 kts 121°
2026-04-28 06:02 16.82395 70.26280 38858 ft 559 kts 121°
2026-04-28 06:02 16.79312 70.32207 38858 ft 559 kts 121°
2026-04-28 06:03 16.75603 70.39330 38856 ft 559 kts 121°
2026-04-28 06:03 16.71887 70.46457 38871 ft 559 kts 121°
2026-04-28 06:04 16.68174 70.53574 38877 ft 558 kts 121°
2026-04-28 06:04 16.64463 70.60676 38866 ft 556 kts 121°
2026-04-28 06:05 16.60758 70.67761 38867 ft 557 kts 121°
2026-04-28 06:05 16.57052 70.74841 38857 ft 556 kts 121°
2026-04-28 06:06 16.53343 70.81918 38857 ft 555 kts 121°
2026-04-28 06:06 16.49662 70.88990 38862 ft 555 kts 120°
2026-04-28 06:07 16.46037 70.96021 38855 ft 554 kts 121°
2026-04-28 06:07 16.42361 71.03079 38867 ft 554 kts 121°
2026-04-28 06:08 16.38706 71.10137 38859 ft 553 kts 121°
2026-04-28 06:08 16.35028 71.17202 38854 ft 553 kts 121°
2026-04-28 06:09 16.31365 71.24247 38855 ft 553 kts 121°
2026-04-28 06:09 16.27697 71.31286 38864 ft 553 kts 121°
2026-04-28 06:10 16.24054 71.38274 38854 ft 552 kts 121°
2026-04-28 06:10 16.20389 71.45297 38866 ft 552 kts 121°
2026-04-28 06:11 16.16724 71.52312 38863 ft 552 kts 121°
2026-04-28 06:11 16.13052 71.59335 38869 ft 552 kts 121°
2026-04-28 06:12 16.09381 71.66348 38866 ft 552 kts 121°
2026-04-28 06:12 16.05816 71.73425 38861 ft 552 kts 120°
2026-04-28 06:13 16.02221 71.80483 38854 ft 552 kts 121°
2026-04-28 06:13 15.98648 71.87496 38866 ft 552 kts 120°
2026-04-28 06:14 15.95064 71.94550 38865 ft 552 kts 121°
2026-04-28 06:14 15.91463 72.01592 38856 ft 552 kts 120°
2026-04-28 06:15 15.87878 72.08635 38859 ft 552 kts 121°
2026-04-28 06:15 15.84268 72.15687 38859 ft 552 kts 120°
2026-04-28 06:16 15.80665 72.22742 38862 ft 553 kts 121°
2026-04-28 06:16 15.77057 72.29784 38852 ft 553 kts 121°
2026-04-28 06:17 15.73447 72.36832 38858 ft 553 kts 121°
2026-04-28 06:18 15.68015 72.47419 38857 ft 554 kts 120°
2026-04-28 06:18 15.64393 72.54470 38851 ft 554 kts 120°
2026-04-28 06:19 15.60763 72.61530 38855 ft 554 kts 120°
2026-04-28 06:19 15.57160 72.68532 38850 ft 554 kts 120°
2026-04-28 06:20 15.53526 72.75584 38858 ft 554 kts 120°
2026-04-28 06:20 15.49893 72.82629 38859 ft 554 kts 120°
2026-04-28 06:21 15.46259 72.89670 38858 ft 553 kts 120°
2026-04-28 06:21 15.42617 72.96719 38838 ft 553 kts 120°
2026-04-28 06:22 15.39011 73.03691 38847 ft 552 kts 120°
2026-04-28 06:22 15.35381 73.10704 38851 ft 551 kts 120°
2026-04-28 06:23 15.31758 73.17698 38856 ft 551 kts 120°
2026-04-28 06:23 15.28123 73.24705 38848 ft 551 kts 120°
2026-04-28 06:24 15.24497 73.31691 38853 ft 550 kts 120°
2026-04-28 06:24 15.20875 73.38660 38851 ft 550 kts 120°
2026-04-28 06:25 15.17255 73.45621 38852 ft 549 kts 120°
2026-04-28 06:25 15.13637 73.52571 38843 ft 548 kts 120°
2026-04-28 06:26 15.10035 73.59485 38849 ft 548 kts 120°
2026-04-28 06:26 15.06414 73.66427 38841 ft 547 kts 120°
2026-04-28 06:27 15.02786 73.73375 38840 ft 547 kts 120°
2026-04-28 06:27 14.99167 73.80301 38842 ft 547 kts 120°
2026-04-28 06:28 14.95553 73.87213 38843 ft 546 kts 120°
2026-04-28 06:28 14.91938 73.94118 38844 ft 546 kts 120°
2026-04-28 06:29 14.88325 74.01010 38841 ft 546 kts 120°
2026-04-28 06:29 14.84726 74.07865 38845 ft 546 kts 120°
2026-04-28 06:30 14.81103 74.14761 38850 ft 545 kts 120°
2026-04-28 06:30 14.77487 74.21636 38852 ft 545 kts 120°
2026-04-28 06:31 14.73866 74.28517 38855 ft 544 kts 120°
2026-04-28 06:31 14.70215 74.35446 38857 ft 544 kts 120°
2026-04-28 06:32 14.66631 74.42245 38867 ft 543 kts 120°
2026-04-28 06:32 14.62984 74.49155 38874 ft 542 kts 120°
2026-04-28 06:33 14.59399 74.55941 38879 ft 542 kts 120°
2026-04-28 06:33 14.55785 74.62776 38882 ft 542 kts 120°
2026-04-28 06:34 14.52175 74.69600 38892 ft 541 kts 120°
2026-04-28 06:34 14.48565 74.76416 38902 ft 541 kts 120°
2026-04-28 06:35 14.45013 74.83276 38905 ft 541 kts 119°
2026-04-28 06:35 14.41489 74.90136 38908 ft 541 kts 120°
2026-04-28 06:36 14.37929 74.96984 38914 ft 542 kts 119°
2026-04-28 06:36 14.34387 75.03861 38927 ft 543 kts 120°
2026-04-28 06:37 14.30822 75.10722 38931 ft 543 kts 120°
2026-04-28 06:37 14.27286 75.17560 38935 ft 543 kts 120°
2026-04-28 06:38 14.23723 75.24417 38940 ft 542 kts 120°
2026-04-28 06:38 14.20164 75.31277 38943 ft 542 kts 120°
2026-04-28 06:39 14.16610 75.38115 38943 ft 540 kts 120°
2026-04-28 06:39 14.13062 75.44936 38948 ft 540 kts 120°
2026-04-28 06:40 14.09498 75.51782 38951 ft 540 kts 120°
2026-04-28 06:40 14.05961 75.58558 38950 ft 540 kts 120°
2026-04-28 06:41 14.02391 75.65371 38952 ft 539 kts 120°
2026-04-28 06:41 13.98835 75.72168 38956 ft 539 kts 120°
2026-04-28 06:42 13.95269 75.78966 38952 ft 539 kts 120°
2026-04-28 06:42 13.91712 75.85749 38950 ft 538 kts 120°
2026-04-28 06:43 13.88153 75.92524 38955 ft 538 kts 120°
2026-04-28 06:43 13.84595 75.99295 38956 ft 538 kts 120°
2026-04-28 06:44 13.81031 76.06072 38956 ft 538 kts 120°
2026-04-28 06:44 13.78071 76.11696 38956 ft 537 kts 120°
2026-04-28 06:45 13.73929 76.19562 38954 ft 537 kts 120°
2026-04-28 06:45 13.70969 76.25178 38958 ft 537 kts 120°
2026-04-28 06:46 13.67403 76.31941 38957 ft 538 kts 120°
2026-04-28 06:46 13.63829 76.38711 38957 ft 539 kts 120°
2026-04-28 06:47 13.60251 76.45485 38958 ft 539 kts 120°
2026-04-28 06:47 13.56720 76.52167 39028 ft 518 kts 120°
2026-04-28 06:47 13.55014 76.55391 38855 ft 509 kts 120°
2026-04-28 06:48 13.53328 76.58574 38515 ft 505 kts 120°
2026-04-28 06:48 13.51651 76.61738 38033 ft 503 kts 120°
2026-04-28 06:48 13.49983 76.64890 37504 ft 500 kts 120°
2026-04-28 06:48 13.48326 76.68019 36898 ft 496 kts 120°
2026-04-28 06:49 13.46703 76.71081 36318 ft 492 kts 120°
2026-04-28 06:49 13.45066 76.74167 35787 ft 489 kts 120°
2026-04-28 06:49 13.43445 76.77224 35232 ft 485 kts 120°
2026-04-28 06:49 13.41838 76.80254 34711 ft 482 kts 120°
2026-04-28 06:50 13.40238 76.83268 34183 ft 478 kts 120°
2026-04-28 06:50 13.38650 76.86258 33603 ft 475 kts 120°
2026-04-28 06:50 13.37082 76.89208 32993 ft 472 kts 120°
2026-04-28 06:50 13.35510 76.92167 32416 ft 468 kts 120°
2026-04-28 06:51 13.33956 76.95092 31851 ft 465 kts 120°
2026-04-28 06:51 13.32410 76.97998 31281 ft 462 kts 120°
2026-04-28 06:51 13.30879 77.00877 30735 ft 458 kts 120°
2026-04-28 06:51 13.29358 77.03736 30197 ft 454 kts 119°
2026-04-28 06:52 13.27851 77.06567 29606 ft 450 kts 119°
2026-04-28 06:52 13.26353 77.09382 28978 ft 446 kts 119°
2026-04-28 06:52 13.24869 77.12166 28374 ft 442 kts 119°
2026-04-28 06:52 13.23397 77.14929 27780 ft 438 kts 119°
2026-04-28 06:53 13.21941 77.17662 27180 ft 434 kts 119°
2026-04-28 06:53 13.20606 77.20167 26665 ft 431 kts 119°
2026-04-28 06:53 13.19175 77.22851 26117 ft 427 kts 119°
2026-04-28 06:53 13.17764 77.25495 25773 ft 417 kts 119°
2026-04-28 06:54 13.16332 77.28021 25566 ft 402 kts 125°
2026-04-28 06:54 13.14442 77.30062 25354 ft 389 kts 142°
2026-04-28 06:54 13.12151 77.31434 25153 ft 376 kts 157°
2026-04-28 06:54 13.09682 77.32145 24961 ft 364 kts 171°
2026-04-28 06:55 13.07229 77.32215 24782 ft 353 kts 185°
2026-04-28 06:55 13.04856 77.31694 24493 ft 346 kts 198°
2026-04-28 06:55 13.02705 77.30632 24185 ft 341 kts 212°
2026-04-28 06:55 13.00880 77.29117 23869 ft 337 kts 224°
2026-04-28 06:56 12.99445 77.27217 23481 ft 336 kts 237°
2026-04-28 06:56 12.98474 77.25044 23036 ft 335 kts 251°
2026-04-28 06:56 12.98010 77.22714 22610 ft 333 kts 264°
2026-04-28 06:56 12.98072 77.20354 22255 ft 329 kts 277°
2026-04-28 06:57 12.98629 77.18108 21969 ft 324 kts 290°
2026-04-28 06:57 12.99609 77.16072 21705 ft 320 kts 299°
2026-04-28 06:57 13.00699 77.14077 21278 ft 323 kts 298°
2026-04-28 06:57 13.01793 77.12026 20811 ft 324 kts 298°
2026-04-28 06:58 13.02869 77.09993 20362 ft 324 kts 298°
2026-04-28 06:58 13.03937 77.07987 19908 ft 325 kts 298°
2026-04-28 06:58 13.05028 77.05948 19472 ft 325 kts 298°
2026-04-28 06:58 13.06115 77.03913 19039 ft 325 kts 298°
2026-04-28 06:59 13.07200 77.01875 18606 ft 326 kts 298°
2026-04-28 06:59 13.08371 76.99938 18189 ft 324 kts 308°
2026-04-28 06:59 13.09925 76.98313 17963 ft 314 kts 320°
2026-04-28 06:59 13.11722 76.97101 17724 ft 305 kts 333°
2026-04-28 07:00 13.13672 76.96316 17493 ft 299 kts 345°
2026-04-28 07:00 13.15708 76.95961 17249 ft 297 kts 357°
2026-04-28 07:00 13.17764 76.96035 16965 ft 295 kts
2026-04-28 07:00 13.19747 76.96526 16692 ft 292 kts 20°
2026-04-28 07:01 13.21576 76.97403 16420 ft 288 kts 32°
2026-04-28 07:01 13.23155 76.98597 16217 ft 283 kts 43°
2026-04-28 07:01 13.24478 77.00065 16053 ft 280 kts 53°
2026-04-28 07:01 13.25503 77.01768 15785 ft 281 kts 64°
2026-04-28 07:02 13.26192 77.03634 15529 ft 278 kts 75°
2026-04-28 07:02 13.26521 77.05580 15280 ft 276 kts 85°
2026-04-28 07:02 13.26491 77.07537 15037 ft 273 kts 95°
2026-04-28 07:02 13.26108 77.09445 14791 ft 276 kts 105°
2026-04-28 07:03 13.25370 77.11284 14557 ft 281 kts 116°
2026-04-28 07:03 13.24408 77.13038 14366 ft 283 kts 117°
2026-04-28 07:03 13.23465 77.14808 14173 ft 284 kts 116°
2026-04-28 07:03 13.22514 77.16615 13976 ft 290 kts 116°
2026-04-28 07:04 13.21539 77.18443 13785 ft 292 kts 116°
2026-04-28 07:04 13.20562 77.20265 13561 ft 292 kts 116°
2026-04-28 07:04 13.19585 77.22088 13316 ft 290 kts 116°
2026-04-28 07:04 13.18617 77.23898 13079 ft 288 kts 116°
2026-04-28 07:05 13.17657 77.25698 12845 ft 290 kts 116°
2026-04-28 07:05 13.16917 77.27627 12531 ft 294 kts 98°
2026-04-28 07:05 13.16680 77.29716 12306 ft 294 kts 97°
2026-04-28 07:05 13.16336 77.31787 12092 ft 294 kts 99°
2026-04-28 07:06 13.15985 77.33851 11911 ft 292 kts 98°
2026-04-28 07:06 13.15679 77.35895 11797 ft 290 kts 97°
2026-04-28 07:06 13.15383 77.37947 11686 ft 291 kts 97°
2026-04-28 07:06 13.15075 77.39994 11577 ft 290 kts 98°
2026-04-28 07:07 13.14760 77.42043 11463 ft 290 kts 98°
2026-04-28 07:07 13.14452 77.44061 11353 ft 290 kts 98°
2026-04-28 07:07 13.14136 77.46154 11249 ft 298 kts 98°
2026-04-28 07:07 13.13817 77.48271 11144 ft 301 kts 98°
2026-04-28 07:08 13.13498 77.50364 11032 ft 301 kts 98°
2026-04-28 07:08 13.13174 77.52491 10925 ft 302 kts 98°
2026-04-28 07:08 13.12852 77.54616 10807 ft 301 kts 98°
2026-04-28 07:08 13.12541 77.56664 10711 ft 300 kts 98°
2026-04-28 07:09 13.12212 77.58829 10584 ft 300 kts 98°
2026-04-28 07:09 13.11890 77.60935 10476 ft 299 kts 98°
2026-04-28 07:09 13.11569 77.63048 10367 ft 299 kts 98°
2026-04-28 07:09 13.11247 77.65156 10250 ft 299 kts 98°
2026-04-28 07:10 13.10926 77.67268 10048 ft 300 kts 97°
2026-04-28 07:10 13.10642 77.69373 9805 ft 296 kts 93°
2026-04-28 07:10 13.10644 77.71459 9533 ft 294 kts 89°
2026-04-28 07:10 13.10636 77.73506 9270 ft 283 kts 90°
2026-04-28 07:11 13.10613 77.75448 9007 ft 274 kts 90°
2026-04-28 07:11 13.10594 77.77374 8775 ft 263 kts 90°
2026-04-28 07:11 13.10581 77.79191 8579 ft 251 kts 90°
2026-04-28 07:11 13.10573 77.80973 8334 ft 248 kts 89°
2026-04-28 07:12 13.10566 77.82737 8108 ft 248 kts 89°
2026-04-28 07:12 13.10561 77.84506 7863 ft 248 kts 89°
2026-04-28 07:12 13.10554 77.86269 7627 ft 247 kts 90°
2026-04-28 07:12 13.10545 77.88031 7405 ft 246 kts 89°
2026-04-28 07:13 13.10540 77.89748 7159 ft 235 kts 89°
2026-04-28 07:13 13.10538 77.91387 6892 ft 224 kts 89°
2026-04-28 07:13 13.10534 77.92947 6638 ft 213 kts 90°
2026-04-28 07:13 13.10586 77.94431 6378 ft 212 kts 82°
2026-04-28 07:14 13.11353 77.95722 5977 ft 218 kts 41°
2026-04-28 07:14 13.12783 77.96202 5715 ft 222 kts
2026-04-28 07:14 13.14198 77.95639 5541 ft 222 kts 326°
2026-04-28 07:14 13.15366 77.94605 5538 ft 222 kts 318°
2026-04-28 07:15 13.16531 77.93550 5541 ft 224 kts 319°
2026-04-28 07:15 13.17703 77.92495 5537 ft 225 kts 319°
2026-04-28 07:15 13.18844 77.91421 5501 ft 217 kts 314°
2026-04-28 07:15 13.19378 77.90072 5247 ft 201 kts 276°
2026-04-28 07:16 13.19377 77.88681 5058 ft 188 kts 270°
2026-04-28 07:16 13.19391 77.87395 4995 ft 175 kts 271°
2026-04-28 07:16 13.19318 77.86154 5004 ft 175 kts 264°
2026-04-28 07:16 13.19193 77.84908 4989 ft 173 kts 264°
2026-04-28 07:17 13.18919 77.83701 5001 ft 174 kts 256°
2026-04-28 07:17 13.18857 77.82419 4815 ft 180 kts 270°
2026-04-28 07:17 13.18869 77.81175 4584 ft 174 kts 270°
2026-04-28 07:17 13.18878 77.79955 4364 ft 169 kts 270°
2026-04-28 07:18 13.18886 77.78752 4159 ft 167 kts 270°
2026-04-28 07:18 13.18896 77.77566 3951 ft 166 kts 270°
2026-04-28 07:18 13.18905 77.76393 3746 ft 164 kts 270°
2026-04-28 07:18 13.18920 77.75228 3519 ft 160 kts 270°
2026-04-28 07:19 13.18936 77.74098 3335 ft 159 kts 271°
2026-04-28 07:19 13.18946 77.72971 3122 ft 155 kts 270°
2026-04-28 07:19 13.18949 77.71854 2979 ft 156 kts 269°
2026-04-28 07:19 13.18958 77.70917 2971 ft 113 kts 270°
2026-04-28 07:20 13.18962 77.70278 2971 ft 78 kts 270°
2026-04-28 07:20 13.18963 77.69779 2975 ft 56 kts 270°
2026-04-28 07:20 13.18973 77.69584 2977 ft 1 kts 307°
2026-04-28 07:20 13.18979 77.69582 2978 ft 1 kts 342°
2026-04-28 07:21 13.19020 77.69589 2978 ft 12 kts 10°
2026-04-28 07:21 13.19131 77.69627 2977 ft 17 kts 49°
2026-04-28 07:21 13.19142 77.69731 2976 ft 19 kts 92°
2026-04-28 07:22 13.19134 77.70137 2969 ft 36 kts 90°
2026-04-28 07:22 13.19133 77.70409 2968 ft 40 kts 90°
2026-04-28 07:22 13.19132 77.70696 2973 ft 40 kts 90°
2026-04-28 07:22 13.19131 77.70994 2972 ft 42 kts 90°
2026-04-28 07:23 13.19129 77.71290 2972 ft 43 kts 90°
2026-04-28 07:23 13.19127 77.71601 2970 ft 44 kts 90°
2026-04-28 07:23 13.19124 77.71925 2968 ft 45 kts 90°
2026-04-28 07:23 13.19121 77.72233 2974 ft 38 kts 90°
2026-04-28 07:24 13.19118 77.72453 2975 ft 24 kts 91°
2026-04-28 07:24 13.19152 77.72519 2977 ft 8 kts 12°
2026-04-28 07:24 13.19227 77.72521 2978 ft 14 kts
2026-04-28 07:24 13.19356 77.72522 2977 ft 23 kts
2026-04-28 07:25 13.19550 77.72523 2974 ft 32 kts
2026-04-28 07:25 13.19765 77.72525 2974 ft 22 kts
2026-04-28 07:25 13.19826 77.72483 2974 ft 9 kts 273°
2026-04-28 07:25 13.19824 77.72395 2974 ft 16 kts 269°
2026-04-28 07:26 13.19825 77.72253 2974 ft 23 kts 270°
2026-04-28 07:26 13.19835 77.72128 2974 ft 11 kts 303°
2026-04-28 07:26 13.19876 77.72110 2974 ft 9 kts 353°
2026-04-28 07:26 13.19945 77.72110 2974 ft 11 kts
2026-04-28 07:27 13.20050 77.72110 2974 ft 12 kts
2026-04-28 07:27 13.20128 77.72109 2974 ft 6 kts 343°
2026-04-28 07:27 13.20135 77.72100 2974 ft 2 kts 293°
2026-04-28 07:27 13.20130 77.72063 2974 ft 8 kts 250°
2026-04-28 07:28 13.20113 77.72032 2974 ft 5 kts 237°
2026-04-28 07:28 13.20098 77.72009 2974 ft 1 kts 236°
2026-04-28 07:28 13.20097 77.72008 2974 ft 0 kts 236°